COSMOS 589

Satellite information

Favourite Embed

Satellite Type and Status

PAYLOADIN ORBIT

Key statistics

Satellite COSMOS 589 at a glance.

Uptime

18970

Days in orbit

Revolutions

≈ 12.5

Per day

Orbit

LEO

Low Earth Orbit

Inclination

74.0

Latest

Satellite identification and parameters

Extended collection of information and parameters for COSMOS 589.

Object identification

Identified? True

Debris? False

Object name: COSMOS 589

International designator: 1973-069B

Object number (NORAD): 6846

Object ID (CCSDS): 6846

Country: COMMONWEALTH OF INDEPENDENT STATES (CIS)

Current information (Y/N): Y

RCS size: MEDIUM

Orbital parameters

Period: 114.903 minutes

Inclination: 74.0014 deg

SMA: 7829.151 km

Apoapsis: 1488.233 km

Periapsis: 1413.798 km

RAAN: 148.5128 deg

Eccentricy: 0.00475367

Argument of periapsis: 304.5524 deg

Mean anomaly: 227.8919 deg

Mean motion: 12.53230008 rev/day

Mean motion (dot): 0.00000007 rev/day2

B* drag term: 0.00014392529 1/REarth

Two-line elements (TLE)

Creation date: Sept. 8, 2025, 6:18 p.m.

Reference frame: TEME

Reference center: EARTH

Epoch: Sept. 8, 2025, 11:22 a.m. UTC

TLE line 0: 0 COSMOS 589

TLE line 1: 1 06846U 73069B 25251.47381174 .00000007 00000-0 14393-3 0 9999

TLE line 2: 2 06846 74.0014 148.5128 0047537 304.5524 227.8919 12.53230008375894

Live tracking on map

Real-time ground track for satellite COSMOS 589.

In-orbit conjunctions

There are no conjunctions computed for COSMOS 589, at the moment. Check back to stay up to date, as we update our databases every day.

Go to all conjunctions

Associated space launch

Military communications satellites

COSMOS 589 was lifted into orbit during the mission ‘Kosmos-3M | Strela-1M 49-56’, on board a Kosmos-3M space rocket.

The launch took place on Oct. 2, 1973, 9:46 p.m. from 132/2.

For more information about the launch, click the button.

Launch to space Kosmos-3M | Strela-1M 49-56
Kosmos-3M | Strela-1M 49-56

Agency: N/A

Status: Launch Successful

Launch date: Oct. 2, 1973, 9:46 p.m. UTC

Rocket: Kosmos-3M

Launch pad: 132/2

Location: Plesetsk Cosmodrome, Russian Federation

...

Latest news about this satellite

There are no fresh news available about this satellite. Check back as we update our databases every day.


Newsletter sign-up

Weekly statistics, charts and insights to help you stay on top of the space industry.